Time,TemperatureF,DewpointF,PressureIn,WindDirection,WindDirectionDegrees,WindSpeedMPH,WindSpeedGustMPH,Humidity,HourlyPrecipIn,Conditions,Clouds,dailyrainin,SoftwareType,DateUTC
2013-05-04 00:02:00,51.0,40.0,30.32,SSE,149,1.0,5.0,65,0.00,,,0.00,,2013-05-04 04:02:00,
2013-05-04 00:12:00,51.0,40.0,30.32,SSE,149,1.0,5.0,65,0.00,,,0.00,,2013-05-04 04:12:00,
2013-05-04 00:22:00,50.0,39.0,30.32,SSE,149,0.0,3.0,66,0.00,,,0.00,,2013-05-04 04:22:00,
2013-05-04 00:33:00,49.0,38.0,30.32,SSE,149,0.0,0.0,66,0.00,,,0.00,,2013-05-04 04:33:00,
2013-05-04 00:42:00,49.0,38.0,30.32,SSE,149,0.0,0.0,66,0.00,,,0.00,,2013-05-04 04:42:00,
2013-05-04 00:52:00,48.0,38.0,30.32,SSE,149,0.0,0.0,69,0.00,,,0.00,,2013-05-04 04:52:00,
2013-05-04 01:02:00,47.0,38.0,30.32,SSE,149,0.0,0.0,71,0.00,,,0.00,,2013-05-04 05:02:00,
2013-05-04 01:12:00,46.0,37.0,30.31,SSE,149,0.0,0.0,72,0.00,,,0.00,,2013-05-04 05:12:00,
2013-05-04 01:22:00,46.0,37.0,30.31,SSE,149,0.0,0.0,72,0.00,,,0.00,,2013-05-04 05:22:00,
2013-05-04 01:32:00,46.0,38.0,30.30,SSE,149,0.0,0.0,73,0.00,,,0.00,,2013-05-04 05:32:00,
2013-05-04 01:43:00,46.0,38.0,30.30,SSE,149,0.0,0.0,73,0.00,,,0.00,,2013-05-04 05:43:00,
2013-05-04 01:52:00,45.0,37.0,30.29,SSE,149,0.0,0.0,74,0.00,,,0.00,,2013-05-04 05:52:00,
2013-05-04 02:01:00,45.0,37.0,30.29,SSE,149,0.0,0.0,74,0.00,,,0.00,,2013-05-04 06:01:00,
2013-05-04 02:11:00,45.0,37.0,30.29,SSE,149,0.0,0.0,74,0.00,,,0.00,,2013-05-04 06:11:00,
2013-05-04 02:21:00,45.0,37.0,30.29,SSE,149,0.0,0.0,74,0.00,,,0.00,,2013-05-04 06:21:00,
2013-05-04 02:32:00,45.0,37.0,30.29,SSE,149,0.0,0.0,74,0.00,,,0.00,,2013-05-04 06:32:00,
2013-05-04 02:42:00,45.0,37.0,30.29,SSE,149,0.0,0.0,74,0.00,,,0.00,,2013-05-04 06:42:00,
2013-05-04 02:52:00,45.0,38.0,30.28,SSE,149,0.0,0.0,75,0.00,,,0.00,,2013-05-04 06:52:00,
2013-05-04 03:01:00,45.0,38.0,30.27,SSE,149,0.0,0.0,75,0.00,,,0.00,,2013-05-04 07:01:00,
2013-05-04 03:11:00,45.0,38.0,30.27,SSE,149,0.0,0.0,75,0.00,,,0.00,,2013-05-04 07:11:00,
2013-05-04 03:21:00,45.0,38.0,30.27,SSE,149,0.0,0.0,75,0.00,,,0.00,,2013-05-04 07:21:00,
2013-05-04 03:32:00,44.0,37.0,30.27,SSE,149,0.0,0.0,76,0.00,,,0.00,,2013-05-04 07:32:00,
2013-05-04 03:42:00,44.0,37.0,30.27,SSE,149,0.0,0.0,76,0.00,,,0.00,,2013-05-04 07:42:00,
2013-05-04 03:52:00,44.0,37.0,30.27,SSE,149,0.0,0.0,76,0.00,,,0.00,,2013-05-04 07:52:00,
2013-05-04 04:01:00,43.0,36.0,30.27,SSE,149,0.0,0.0,77,0.00,,,0.00,,2013-05-04 08:01:00,
2013-05-04 04:11:00,43.0,36.0,30.27,SSE,149,0.0,0.0,77,0.00,,,0.00,,2013-05-04 08:11:00,
2013-05-04 04:21:00,42.0,36.0,30.27,SSE,149,0.0,0.0,78,0.00,,,0.00,,2013-05-04 08:21:00,
2013-05-04 04:32:00,42.0,36.0,30.27,SSE,149,0.0,0.0,78,0.00,,,0.00,,2013-05-04 08:32:00,
2013-05-04 04:42:00,42.0,36.0,30.27,SSE,149,0.0,0.0,78,0.00,,,0.00,,2013-05-04 08:42:00,
2013-05-04 04:52:00,41.0,35.0,30.27,SSE,149,0.0,0.0,79,0.00,,,0.00,,2013-05-04 08:52:00,
2013-05-04 05:02:00,41.0,35.0,30.27,SSE,149,0.0,0.0,79,0.00,,,0.00,,2013-05-04 09:02:00,
2013-05-04 05:11:00,41.0,35.0,30.27,SSE,149,0.0,0.0,79,0.00,,,0.00,,2013-05-04 09:11:00,
2013-05-04 05:22:00,41.0,35.0,30.27,SSE,149,0.0,0.0,80,0.00,,,0.00,,2013-05-04 09:22:00,
2013-05-04 05:32:00,40.0,34.0,30.27,SSE,149,0.0,0.0,80,0.00,,,0.00,,2013-05-04 09:32:00,
2013-05-04 05:42:00,40.0,34.0,30.27,SSE,149,0.0,0.0,80,0.00,,,0.00,,2013-05-04 09:42:00,
2013-05-04 05:53:00,40.0,34.0,30.27,SSE,149,0.0,0.0,80,0.00,,,0.00,,2013-05-04 09:53:00,
2013-05-04 06:03:00,40.0,34.0,30.27,SSE,149,0.0,0.0,80,0.00,,,0.00,,2013-05-04 10:03:00,
2013-05-04 06:12:00,40.0,34.0,30.27,SSE,149,0.0,0.0,80,0.00,,,0.00,,2013-05-04 10:12:00,
2013-05-04 06:23:00,41.0,36.0,30.28,SSE,149,0.0,0.0,81,0.00,,,0.00,,2013-05-04 10:23:00,
2013-05-04 06:33:00,41.0,36.0,30.29,SSE,149,0.0,0.0,81,0.00,,,0.00,,2013-05-04 10:33:00,
2013-05-04 06:42:00,41.0,36.0,30.29,SSE,149,0.0,0.0,81,0.00,,,0.00,,2013-05-04 10:42:00,
2013-05-04 06:53:00,42.0,37.0,30.29,SSE,149,0.0,0.0,81,0.00,,,0.00,,2013-05-04 10:53:00,
2013-05-04 07:02:00,43.0,38.0,30.29,SSW,200,0.0,0.0,82,0.00,,,0.00,,2013-05-04 11:02:00,
2013-05-04 07:11:00,43.0,38.0,30.29,SSW,200,0.0,0.0,82,0.00,,,0.00,,2013-05-04 11:11:00,
2013-05-04 07:21:00,44.0,39.0,30.30,SSW,200,0.0,1.0,82,0.00,,,0.00,,2013-05-04 11:21:00,
2013-05-04 07:32:00,46.0,41.0,30.30,SSW,200,0.0,0.0,81,0.00,,,0.00,,2013-05-04 11:32:00,
2013-05-04 07:44:00,46.0,41.0,30.30,SSW,200,0.0,0.0,81,0.00,,,0.00,,2013-05-04 11:44:00,
2013-05-04 08:03:00,47.0,41.0,30.30,SSW,201,0.0,1.0,80,0.00,,,0.00,,2013-05-04 12:03:00,
2013-05-04 08:14:00,47.0,41.0,30.30,SSW,209,0.0,2.0,80,0.00,,,0.00,,2013-05-04 12:14:00,
2013-05-04 08:37:00,48.0,41.0,30.30,WSW,247,2.0,4.0,77,0.00,,,0.00,,2013-05-04 12:37:00,
2013-05-04 08:52:00,50.0,42.0,30.29,WNW,290,3.0,5.0,75,0.00,,,0.00,,2013-05-04 12:52:00,
2013-05-04 09:01:00,50.0,41.0,30.29,NW,313,1.0,4.0,72,0.00,,,0.00,,2013-05-04 13:01:00,
2013-05-04 09:21:00,52.0,43.0,30.29,NNW,338,3.0,6.0,72,0.00,,,0.00,,2013-05-04 13:21:00,
2013-05-04 09:32:00,53.0,44.0,30.29,North,355,3.0,6.0,71,0.00,,,0.00,,2013-05-04 13:32:00,
2013-05-04 09:42:00,53.0,44.0,30.29,North,355,3.0,6.0,71,0.00,,,0.00,,2013-05-04 13:42:00,
2013-05-04 09:52:00,54.0,43.0,30.28,ESE,114,3.0,6.0,67,0.00,,,0.00,,2013-05-04 13:52:00,
2013-05-04 10:02:00,55.0,43.0,30.28,ENE,65,2.0,7.0,64,0.00,,,0.00,,2013-05-04 14:02:00,
2013-05-04 10:11:00,55.0,43.0,30.28,ENE,65,2.0,7.0,64,0.00,,,0.00,,2013-05-04 14:11:00,
2013-05-04 10:21:00,56.0,43.0,30.27,NE,36,3.0,5.0,61,0.00,,,0.00,,2013-05-04 14:21:00,
2013-05-04 10:32:00,57.0,44.0,30.27,East,92,1.0,5.0,61,0.00,,,0.00,,2013-05-04 14:32:00,
2013-05-04 10:42:00,57.0,44.0,30.27,East,92,1.0,5.0,61,0.00,,,0.00,,2013-05-04 14:42:00,
2013-05-04 10:52:00,58.0,44.0,30.27,NE,42,3.0,7.0,60,0.00,,,0.00,,2013-05-04 14:52:00,
2013-05-04 11:02:00,60.0,45.0,30.26,ENE,67,1.0,5.0,58,0.00,,,0.00,,2013-05-04 15:02:00,
2013-05-04 11:12:00,60.0,45.0,30.26,ENE,67,1.0,5.0,58,0.00,,,0.00,,2013-05-04 15:12:00,
2013-05-04 11:22:00,61.0,45.0,30.26,ESE,102,1.0,19.0,56,0.00,,,0.00,,2013-05-04 15:22:00,
2013-05-04 11:33:00,61.0,45.0,30.26,ESE,120,7.0,10.0,55,0.00,,,0.00,,2013-05-04 15:33:00,
2013-05-04 11:43:00,61.0,45.0,30.26,ESE,120,7.0,10.0,55,0.00,,,0.00,,2013-05-04 15:43:00,
2013-05-04 11:53:00,62.0,43.0,30.25,East,84,3.0,8.0,50,0.00,,,0.00,,2013-05-04 15:53:00,
2013-05-04 12:03:00,63.0,43.0,30.25,SSW,193,4.0,8.0,48,0.00,,,0.00,,2013-05-04 16:03:00,
2013-05-04 12:12:00,63.0,43.0,30.25,SSW,193,4.0,8.0,48,0.00,,,0.00,,2013-05-04 16:12:00,
2013-05-04 12:22:00,63.0,43.0,30.24,East,90,2.0,9.0,48,0.00,,,0.00,,2013-05-04 16:22:00,
2013-05-04 12:33:00,65.0,43.0,30.24,SSE,159,4.0,7.0,45,0.00,,,0.00,,2013-05-04 16:33:00,
2013-05-04 12:42:00,65.0,43.0,30.24,SSE,159,4.0,7.0,45,0.00,,,0.00,,2013-05-04 16:42:00,
2013-05-04 12:52:00,65.0,43.0,30.24,East,92,4.0,9.0,44,0.00,,,0.00,,2013-05-04 16:52:00,
2013-05-04 13:02:00,65.0,43.0,30.23,SSE,157,4.0,10.0,44,0.00,,,0.00,,2013-05-04 17:02:00,
2013-05-04 13:12:00,65.0,43.0,30.23,SSE,157,4.0,10.0,44,0.00,,,0.00,,2013-05-04 17:12:00,
2013-05-04 13:22:00,65.0,45.0,30.23,ESE,103,3.0,8.0,48,0.00,,,0.00,,2013-05-04 17:22:00,
2013-05-04 13:32:00,66.0,45.0,30.23,East,85,2.0,5.0,46,0.00,,,0.00,,2013-05-04 17:32:00,
2013-05-04 13:42:00,66.0,45.0,30.23,East,85,2.0,5.0,46,0.00,,,0.00,,2013-05-04 17:42:00,
2013-05-04 13:52:00,67.0,43.0,30.22,SE,141,5.0,9.0,42,0.00,,,0.00,,2013-05-04 17:52:00,
2013-05-04 14:01:00,68.0,44.0,30.22,East,93,4.0,13.0,42,0.00,,,0.00,,2013-05-04 18:01:00,
2013-05-04 14:12:00,68.0,44.0,30.22,East,93,4.0,13.0,42,0.00,,,0.00,,2013-05-04 18:12:00,
2013-05-04 14:22:00,67.0,44.0,30.21,ESE,112,6.0,9.0,44,0.00,,,0.00,,2013-05-04 18:22:00,
2013-05-04 14:32:00,68.0,43.0,30.20,SE,135,4.0,10.0,41,0.00,,,0.00,,2013-05-04 18:32:00,
2013-05-04 14:42:00,68.0,43.0,30.20,SE,135,4.0,10.0,41,0.00,,,0.00,,2013-05-04 18:42:00,
2013-05-04 14:52:00,69.0,46.0,30.20,SSE,154,2.0,7.0,43,0.00,,,0.00,,2013-05-04 18:52:00,
2013-05-04 15:01:00,69.0,46.0,30.19,ESE,119,5.0,13.0,43,0.00,,,0.00,,2013-05-04 19:01:00,
2013-05-04 15:11:00,69.0,46.0,30.19,ESE,119,5.0,13.0,43,0.00,,,0.00,,2013-05-04 19:11:00,
2013-05-04 15:21:00,69.0,44.0,30.19,ESE,103,7.0,12.0,40,0.00,,,0.00,,2013-05-04 19:21:00,
2013-05-04 15:32:00,69.0,44.0,30.18,East,92,3.0,9.0,41,0.00,,,0.00,,2013-05-04 19:32:00,
2013-05-04 15:42:00,69.0,44.0,30.18,East,92,3.0,9.0,41,0.00,,,0.00,,2013-05-04 19:42:00,
2013-05-04 15:52:00,70.0,44.0,30.17,East,90,4.0,11.0,39,0.00,,,0.00,,2013-05-04 19:52:00,
2013-05-04 16:02:00,70.0,43.0,30.17,East,96,6.0,11.0,38,0.00,,,0.00,,2013-05-04 20:02:00,
2013-05-04 16:11:00,70.0,43.0,30.17,East,96,6.0,11.0,38,0.00,,,0.00,,2013-05-04 20:11:00,
2013-05-04 16:22:00,70.0,44.0,30.16,SE,142,3.0,11.0,39,0.00,,,0.00,,2013-05-04 20:22:00,
2013-05-04 16:32:00,70.0,45.0,30.16,ESE,116,4.0,10.0,41,0.00,,,0.00,,2013-05-04 20:32:00,
2013-05-04 16:42:00,70.0,45.0,30.16,ESE,116,4.0,10.0,41,0.00,,,0.00,,2013-05-04 20:42:00,
2013-05-04 16:52:00,70.0,43.0,30.16,East,94,4.0,9.0,37,0.00,,,0.00,,2013-05-04 20:52:00,
2013-05-04 17:02:00,70.0,43.0,30.16,SE,144,1.0,12.0,37,0.00,,,0.00,,2013-05-04 21:02:00,
2013-05-04 17:12:00,70.0,43.0,30.16,SE,144,1.0,12.0,37,0.00,,,0.00,,2013-05-04 21:12:00,
2013-05-04 17:22:00,70.0,42.0,30.15,ESE,105,5.0,13.0,36,0.00,,,0.00,,2013-05-04 21:22:00,
2013-05-04 17:33:00,70.0,43.0,30.15,East,92,4.0,9.0,37,0.00,,,0.00,,2013-05-04 21:33:00,
2013-05-04 17:43:00,70.0,43.0,30.15,East,92,4.0,9.0,37,0.00,,,0.00,,2013-05-04 21:43:00,
2013-05-04 17:53:00,70.0,43.0,30.15,SE,142,4.0,10.0,37,0.00,,,0.00,,2013-05-04 21:53:00,
2013-05-04 18:03:00,70.0,41.0,30.15,SE,142,5.0,11.0,35,0.00,,,0.00,,2013-05-04 22:03:00,
2013-05-04 18:12:00,70.0,41.0,30.15,SE,142,5.0,11.0,35,0.00,,,0.00,,2013-05-04 22:12:00,
2013-05-04 18:22:00,69.0,40.0,30.15,SSE,153,1.0,10.0,35,0.00,,,0.00,,2013-05-04 22:22:00,
2013-05-04 18:33:00,69.0,41.0,30.15,SE,145,2.0,8.0,36,0.00,,,0.00,,2013-05-04 22:33:00,
2013-05-04 18:42:00,69.0,41.0,30.15,SE,145,2.0,8.0,36,0.00,,,0.00,,2013-05-04 22:42:00,
2013-05-04 18:52:00,69.0,41.0,30.15,SE,128,3.0,8.0,36,0.00,,,0.00,,2013-05-04 22:52:00,
2013-05-04 19:02:00,68.0,41.0,30.14,SE,138,3.0,8.0,37,0.00,,,0.00,,2013-05-04 23:02:00,
2013-05-04 19:12:00,68.0,41.0,30.14,SE,138,3.0,8.0,37,0.00,,,0.00,,2013-05-04 23:12:00,
2013-05-04 19:22:00,67.0,39.0,30.15,ESE,123,2.0,9.0,36,0.00,,,0.00,,2013-05-04 23:22:00,
2013-05-04 19:32:00,67.0,41.0,30.15,SE,125,2.0,7.0,38,0.00,,,0.00,,2013-05-04 23:32:00,
2013-05-04 19:42:00,67.0,41.0,30.15,SE,125,2.0,7.0,38,0.00,,,0.00,,2013-05-04 23:42:00,
2013-05-04 19:52:00,66.0,40.0,30.15,SE,136,1.0,5.0,39,0.00,,,0.00,,2013-05-04 23:52:00,
2013-05-04 20:02:00,65.0,41.0,30.15,SE,144,1.0,6.0,41,0.00,,,0.00,,2013-05-05 00:02:00,
2013-05-04 20:11:00,65.0,41.0,30.15,SE,144,1.0,6.0,41,0.00,,,0.00,,2013-05-05 00:11:00,
2013-05-04 20:21:00,64.0,40.0,30.15,SSE,154,1.0,8.0,42,0.00,,,0.00,,2013-05-05 00:21:00,
2013-05-04 20:32:00,63.0,40.0,30.16,SE,134,1.0,3.0,43,0.00,,,0.00,,2013-05-05 00:32:00,
2013-05-04 20:42:00,63.0,40.0,30.16,SE,134,1.0,3.0,43,0.00,,,0.00,,2013-05-05 00:42:00,
2013-05-04 20:52:00,62.0,40.0,30.16,SE,134,0.0,3.0,45,0.00,,,0.00,,2013-05-05 00:52:00,
2013-05-04 21:01:00,61.0,40.0,30.16,SE,134,0.0,2.0,46,0.00,,,0.00,,2013-05-05 01:01:00,
2013-05-04 21:11:00,60.0,41.0,30.17,SE,134,1.0,2.0,49,0.00,,,0.00,,2013-05-05 01:11:00,
2013-05-04 21:21:00,60.0,41.0,30.17,SE,134,1.0,2.0,49,0.00,,,0.00,,2013-05-05 01:21:00,
2013-05-04 21:32:00,60.0,41.0,30.18,SE,134,0.0,1.0,50,0.00,,,0.00,,2013-05-05 01:32:00,
2013-05-04 21:42:00,60.0,41.0,30.18,SE,134,0.0,1.0,50,0.00,,,0.00,,2013-05-05 01:42:00,
2013-05-04 21:52:00,58.0,41.0,30.18,SE,134,0.0,0.0,53,0.00,,,0.00,,2013-05-05 01:52:00,
2013-05-04 22:02:00,58.0,42.0,30.19,SE,134,0.0,2.0,55,0.00,,,0.00,,2013-05-05 02:02:00,
2013-05-04 22:11:00,58.0,42.0,30.19,SE,134,0.0,2.0,55,0.00,,,0.00,,2013-05-05 02:11:00,
2013-05-04 22:22:00,57.0,41.0,30.19,SE,134,0.0,0.0,56,0.00,,,0.00,,2013-05-05 02:22:00,
2013-05-04 22:32:00,58.0,42.0,30.20,SSE,153,2.0,13.0,55,0.00,,,0.00,,2013-05-05 02:32:00,
2013-05-04 22:42:00,58.0,42.0,30.20,SSE,153,2.0,13.0,55,0.00,,,0.00,,2013-05-05 02:42:00,
2013-05-04 22:52:00,58.0,42.0,30.21,SSE,161,3.0,8.0,55,0.00,,,0.00,,2013-05-05 02:52:00,
2013-05-04 23:01:00,58.0,42.0,30.20,South,173,2.0,7.0,55,0.00,,,0.00,,2013-05-05 03:01:00,
2013-05-04 23:11:00,58.0,42.0,30.20,South,173,2.0,7.0,55,0.00,,,0.00,,2013-05-05 03:11:00,
2013-05-04 23:22:00,57.0,41.0,30.19,South,189,2.0,5.0,55,0.00,,,0.00,,2013-05-05 03:22:00,
2013-05-04 23:33:00,56.0,41.0,30.19,SSW,196,0.0,4.0,57,0.00,,,0.00,,2013-05-05 03:33:00,
2013-05-04 23:42:00,56.0,41.0,30.19,SSW,196,0.0,4.0,57,0.00,,,0.00,,2013-05-05 03:42:00,
2013-05-04 23:53:00,55.0,41.0,30.19,SSW,196,0.0,2.0,59,0.00,,,0.00,,2013-05-05 03:53:00,